Omaha Offutt, NE

11:08 PM CDT on March 25, 2017 (GMT -0500)
Offutt Air Force Base

Weather History for KOFF - December, 2012

Change the Weather History Date:

Tuesday, December 4, 2012

  Actual Average Record
Temperature  
Mean Temperature 39 °F -  
Max Temperature 57 °F 41 °F 66 °F (1998)
Min Temperature 21 °F 24 °F 3 °F (2005)
Degree Days  
Heating Degree Days 26    
Moisture  
Dew Point 25 °F    
Average Humidity 66    
Maximum Humidity 94    
Minimum Humidity 29    
Precipitation  
Precipitation 0.00 in - - ()
Sea Level Pressure  
Sea Level Pressure 30.24 in    
Wind  
Wind Speed 3 mph (WNW)    
Max Wind Speed 8 mph    
Max Gust Speed -    
Visibility 10 miles    
Events      
Averages and records for this station are not official NWS values.
T = Trace of Precipitation, MM = Missing Value Source: NWS Daily Summary

Daily Weather History Graph

Daily Weather History Graph

Search for Another Location

Airport or City:

Trip Planner

Search our weather history database for the weather conditions in past years. The results will help you decide how hot, cold, wet, or windy it might be!

Date:

Astronomy

Dec. 04, 2012 Rise Set
Actual Time 7:33 AM CST 4:55 PM CST
Civil Twilight 7:02 AM CST 5:25 PM CST
Nautical Twilight 6:27 AM CST 6:00 PM CST
Astronomical Twilight 5:54 AM CST 6:33 PM CST
Moon 10:45 PM CST (12/4) 11:25 AM CST (12/4)
Length of Visible Light 10h 23m
Length of Day
9h 22m
Waning Gibbous, 69% of the Moon is Illuminated
Dec 4
Waning Gibbous
Dec 6
Last Quarter
Dec 13
New
Dec 19
First Quarter
Dec 28
Full

Hourly Weather History & Observations

Time (CST) Temp. Windchill Dew Point Humidity Pressure Visibility Wind Dir Wind Speed Gust Speed Precip Events Conditions
12:55 AM 35.4 °F 29.0 °F 25.3 °F 67% 30.11 in 10.0 mi NW 8.1 mph - N/A   Clear
1:55 AM 32.9 °F 29.8 °F 24.1 °F 70% 30.12 in 10.0 mi WSW 3.5 mph - N/A   Clear
2:55 AM 35.8 °F 30.1 °F 24.4 °F 63% 30.13 in 10.0 mi WNW 6.9 mph - N/A   Clear
3:55 AM 26.4 °F - 22.8 °F 86% 30.15 in 10.0 mi Calm Calm - N/A   Clear
4:55 AM 26.8 °F - 23.0 °F 86% 30.18 in 10.0 mi Calm Calm - N/A   Clear
5:55 AM 21.0 °F - 18.9 °F 91% 30.20 in 10.0 mi Calm Calm - N/A   Clear
6:55 AM 21.9 °F - 20.5 °F 94% 30.24 in 10.0 mi Calm Calm - N/A   Clear
7:55 AM 24.3 °F - 21.2 °F 88% 30.25 in 10.0 mi Calm Calm - N/A   Clear
8:55 AM 32.9 °F - 28.4 °F 84% 30.27 in 10.0 mi Calm Calm - N/A   Clear
9:55 AM 40.5 °F - 27.7 °F 60% 30.27 in 10.0 mi Calm Calm - N/A   Clear
10:55 AM 46.8 °F - 26.8 °F 46% 30.27 in 10.0 mi Calm Calm - N/A   Clear
11:55 AM 52.2 °F - 27.5 °F 39% 30.26 in 10.0 mi Variable 3.5 mph - N/A   Clear
12:55 PM 55.2 °F - 25.2 °F 31% 30.25 in 10.0 mi Variable 3.5 mph - N/A   Clear
1:55 PM 57.4 °F - 25.5 °F 29% 30.25 in 10.0 mi Calm Calm - N/A   Clear
2:55 PM 57.9 °F - 26.1 °F 30% 30.24 in 10.0 mi West 4.6 mph - N/A   Clear
3:55 PM 57.2 °F - 25.9 °F 30% 30.25 in 10.0 mi Calm Calm - N/A   Clear
4:55 PM 48.7 °F - 26.1 °F 41% 30.27 in 10.0 mi Calm Calm - N/A   Clear
5:55 PM 36.9 °F - 25.3 °F 63% 30.28 in 10.0 mi Calm Calm - N/A   Clear
6:55 PM 31.5 °F - 24.1 °F 74% 30.29 in 10.0 mi Calm Calm - N/A   Clear
7:55 PM 32.0 °F - 25.5 °F 77% 30.30 in 10.0 mi Calm Calm - N/A   Clear
8:55 PM 30.7 °F - 25.3 °F 80% 30.30 in 10.0 mi Calm Calm - N/A   Clear
9:55 PM 34.0 °F - 29.5 °F 84% 30.31 in 10.0 mi Calm Calm - N/A   Clear
10:55 PM 31.6 °F - 27.7 °F 85% 30.31 in 10.0 mi Calm Calm - N/A   Clear
11:55 PM 30.6 °F - 25.3 °F 81% 30.31 in 10.0 mi Calm Calm - N/A   Clear